STARLINK-34605, 64677

Orbit data source: Space-Track

STARLINK-34605, 64677 is a payload satellite owned by SpaceX/Seattle (US) in LEO that was launched on Sat, 28 Jun 2025 UTC via an FALCON 9 launch vehicle from the Air Force Eastern Test Range (AFETR). Payload-class satellites include a variety of spacecraft equipped with specific instruments for various scientific and technological missions. These include communications satellites like Starlink; space stations such as the ISS; scientific satellites like the Hubble; Earth observation satellites from companies like Planet Labs, Umbra, and HawkEye 360; GPS; miniature CubeSats for education and research; and military/defense satellites.

Loading next visibility...
Identifier
64677, 2025-139P
Orbit
LEO
Country
Flag of USUS
Related business
Manufacturer
SpaceX/Seattle
Mission
Operational Commercial Communications
Bus & Motor
STARLINK V2MO, Unknown motor
Mass
575 kg wet, ~530 kg dry
Launch date (UTC)
2025-06-28 (1 year ago)
Launch vehicle
FALCON 9
Launch site
Air Force Eastern Test Range (AFETR)
Object type
Payload
Rocket body
Debris
Shape & HBR
Box + 2 Pan, 17.7 m
Radar Cross Section
36.964 m², Large (>1 m²)

Expand to show TLE details & history
Last TLE update: 1 day ago

TLE from 1 day ago
0 STARLINK-34605
1 64677U 25139P   26170.85370866  .00019535  00000-0  66956-3 0  9997
2 64677  53.1611   2.0138 0000937  96.9881 263.1227 15.30217977 56076
Epoch: 2026-06-19T20:29Z
TLE epoch observation values (Epoch: 2026-06-19T20:29:20.428Z)
Latitude
0.00004°
Longitude
146.60199°
Altitude
476.138 km
Speed
7.629 km/s
True Right ascension
00h 08m 03s
True Declination
0° 00' 00"
Sunlit
Object was in daylight at epoch
Visualization orbit readout
Latitude
Unknown
Longitude
Unknown
Altitude
Unknown
Speed
Unknown
Apparent Right ascension
Unknown
Apparent Declination
Unknown
Sunlit
N/A
Visualization observer readout
Local Sidereal Time
07:19:28
Azimuth
Unknown
Elevation
Unknown
Doppler factor
Unknown
Orbital elements
Apogee altitude
476.06 km
Perigee altitude
474.775 km
Semi-major axis
6,853.555 km
Eccentricity
0.00009
Inclination
53.1611°
RAAN
2.0138°
Arg. of periapsis
96.9881°
True anomaly
263.11204°
Mean anomaly
263.1227°
Eccentric anomaly
263.11737°
Mean motion
3.82533 °/min
Orbital period
94.11 mins
BSTAR
0.00066956
Loading maneuver chart data...
Computing Atmospheric mass density...
Loading historical data...
Loading historical data...
Loading historical data...
Loading historical data...
Loading historical data...
Loading historical data...
Loading historical data...

Documentation

Showing up to 5 results
|